This is the latest recevied weather packets stored in our database for station/object 9W2RUT-G. If no packets are shown the sender has not sent any weather packets the latest 10 day(s).
| Time | Temp. | Humidity | Pressure | Rain* | Wind** | Luminosity | Snow |
|---|---|---|---|---|---|---|---|
| 1777952754 | 31.11° C | 42% | 1013.3 hPa | - | - | - | - |
| 1777951853 | 30.56° C | 42% | 1013.5 hPa | - | - | - | - |
| 1777950952 | 30.56° C | 43% | 1013.7 hPa | - | - | - | - |
| 1777950052 | 30.56° C | 42% | 1013.7 hPa | - | - | - | - |
| 1777949151 | 30° C | 42% | 1013.7 hPa | - | - | - | - |
| 1777948251 | 30° C | 41% | 1013.9 hPa | - | - | - | - |
| 1777947351 | 30° C | 41% | 1013.8 hPa | - | - | - | - |
| 1777946451 | 29.44° C | 40% | 1013.8 hPa | - | - | - | - |
| 1777945551 | 28.89° C | 40% | 1013.7 hPa | - | - | - | - |
| 1777944649 | 29.44° C | 39% | 1013.7 hPa | - | - | - | - |
| 1777943749 | 28.89° C | 39% | 1013.7 hPa | - | - | - | - |
| 1777942848 | 28.33° C | 39% | 1013.4 hPa | - | - | - | - |
| 1777941948 | 28.33° C | 38% | 1013.2 hPa | - | - | - | - |
| 1777941048 | 27.22° C | 39% | 1013.1 hPa | - | - | - | - |
| 1777940148 | 26.11° C | 36% | 1013.1 hPa | - | - | - | - |
| 1777939247 | 24.44° C | 32% | 1013.1 hPa | - | - | - | - |
| 1777938346 | 23.89° C | 30% | 1012.9 hPa | - | - | - | - |
| 1777937446 | 23.89° C | 30% | 1012.8 hPa | - | - | - | - |
| 1777936549 | 23.89° C | 37% | 1012.6 hPa | - | - | - | - |
| 1777935690 | 24.44° C | 39% | 1012.4 hPa | - | - | - | - |
| 1777935646 | 24.44° C | 39% | 1012.4 hPa | - | - | - | - |
| 1777934746 | 24.44° C | 34% | 1012.4 hPa | - | - | - | - |
| 1777933845 | 24.44° C | 31% | 1012.3 hPa | - | - | - | - |
| 1777932945 | 23.89° C | 30% | 1012.3 hPa | - | - | - | - |
| 1777932045 | 23.89° C | 30% | 1012.2 hPa | - | - | - | - |
* Rain since midnight (hover to see other rain measurements)
** Current wind speed in m/s (hover to see current wind gust speed)